Home > Weather > Surrey > Past weeks

Flag for Canada Weather for the Past 2 Weeks in Surrey, British Columbia, Canada

Now
71 °F

Mild.


Feels Like: 76 °F
Forecast: 50 / 79 °F
Wind: 3 mph from West

Location: P. Meadows Coastal Station

Current Time: May 1, 2016 at 9:36:38 PM

Latest Report: May 1, 2016 at 8:00 PM


Visibility: N/A

Pressure: 29.94 "Hg

Humidity: 33%

Dew Point: 40 °F

Location of SurreyLocation

Historic Weather in Surrey — Graph

°F

Surrey Temperature Yesterday

Maximum temperature yesterday: 68 °F (at 4:00 PM)
Minimum temperature yesterday: 42 °F (at 6:00 AM)
Average temperature yesterday: 56 °F

High & Low Weather Summary for the Past Weeks

 TemperatureHumidityPressure
High85 °F (Apr 18, 4:00 PM)96% (Apr 25, 7:00 AM)30.37 "Hg (Apr 25, 7:00 AM)
Low-17 °F (Apr 20, 5:00 AM)20% (Apr 18, 3:00 PM)29.59 "Hg (Apr 22, 5:00 AM)
Average56 °F69%30.05 "Hg
* Reported Apr 16 8:00 PM — May 1 8:00 PM, Surrey, Weather by CustomWeather, © 2016

Note: Actual official high and low records may vary slightly from our data, if they occured in-between our weather recording intervals... More about our weather records

Advertising

Surrey Weather History for the Previous 24 Hours

Scroll right to see more
 ConditionsComfort  
Time TempWeatherWind HumidityBarometerVisibility
8:00 PM
Sun, May 1
71 °FMild.3 mph33%29.94 "HgN/A
7:00 PM73 °FMild.6 mph34%29.95 "HgN/A
6:00 PM76 °FMild.7 mph30%29.97 "HgN/A
5:00 PM77 °FPleasantly warm.6 mph31%29.99 "HgN/A
4:00 PM77 °FPleasantly warm.8 mph32%30.02 "HgN/A
3:00 PM77 °FMild.3 mph41%30.05 "HgN/A
2:00 PM74 °FMild.3 mph41%30.07 "HgN/A
1:00 PM71 °FMild.2 mph46%30.11 "HgN/A
12:00 PM68 °FMild.2 mph50%30.15 "HgN/A
11:00 AM64 °FMild.2 mph51%30.17 "HgN/A
10:00 AM62 °FCool.1 mph62%30.20 "HgN/A
9:00 AM56 °FCool.1 mph75%30.22 "HgN/A
8:00 AM52 °FCool.1 mph82%30.24 "HgN/A
7:00 AM47 °FCool.1 mph90%30.25 "HgN/A
6:00 AM44 °FQuite cool.No wind91%30.25 "HgN/A
5:00 AM44 °FQuite cool.1 mph92%30.26 "HgN/A
4:00 AM45 °FCool.2 mph90%30.27 "HgN/A
3:00 AM46 °FCool.1 mph90%30.28 "HgN/A
2:00 AM48 °FCool.No wind87%30.28 "HgN/A
1:00 AM49 °FCool.1 mph82%30.29 "HgN/A
12:00 AM50 °FCool.1 mph78%30.29 "HgN/A
11:00 PM
Sat, Apr 30
51 °FCool.No wind79%30.30 "HgN/A
10:00 PM55 °FCool.No wind64%30.31 "HgN/A
9:00 PM58 °FRefreshingly cool.1 mph53%30.30 "HgN/A
Weather by CustomWeather, © 2016

See weather overviewHow to use our weather pages